Location: Winnipauk Village
(41.1295°N, 73.4171°W)
Time: 19:03:34
(UTC+00:00)

X-37B - Pass Details

Date: 05 August 2021
Orbit: 381 x 393 km, 45.0° (Epoch: 29 August)

Event Time Altitude Azimuth Distance (km) Brightness Sun altitude
Exits shadow 09:01:51 - 281° (W) 1,597 3.3 -9.4°
Reaches altitude 10° 09:02:22 10° 284° (WNW) 1,396 3.0 -9.3°
Maximum altitude 09:05:21 39° 356° (N) 589 1.7 -8.9°
Drops below altitude 10° 09:08:20 10° 67° (ENE) 1,399 5.1 -8.4°
Sets 09:10:29 0° 75° (ENE) 2,253 6.2 -8.0°
